Regional Weather Roundup
Issued by NWS

Home | Current Version | Previous Version | Graphics & Text | Print | Product List | Glossary On
Versions: 1 2 3 4 5 6 7 8 9 10 11 12 13 14 15 16 17 18 19 20 21 22 23 24 25 26 27 28 29 30 31 32 33 34 35 36 37 38 39 40 41 42 43 44 45 46 47 48 49 50
000
ASUS43 KMPX 261401
RWRMN
WEATHER ROUNDUP FOR MINNESOTA
NATIONAL WEATHER SERVICE TWIN CITIES/CHANHASSEN MN
800 AM CST SUN FEB 26 2017


NOTE: "FAIR" INDICATES FEW OR NO CLOUDS BELOW 12,000 FEET WITH NO
SIGNIFICANT WEATHER AND/OR OBSTRUCTIONS TO VISIBILITY. N/A MEANS
CURRENT SKY AND/OR WEATHER CONDITIONS ARE NOT AVAILABLE.

MNZ060>063-068>070-261500-
   Twin Cities Metro

CITY           SKY/WX    TMP DP  RH WIND       PRES   REMARKS
TWIN CITIES    PTSUNNY   24  18  77 SW8       29.75R WCI  15
ST PAUL        MOSUNNY   25  19  78 SW6       29.76R WCI  18
CRYSTAL        PTCLDY    23  17  78 SW7       29.73R WCI  15
BLAINE         MOSUNNY   25  19  80 SW9       29.73R WCI  15
LAKEVILLE      SUNNY     21  19  93 CALM      29.75R
EDEN PRAIRIE   MOCLDY    24  18  77 SW7       29.74R WCI  16
SOUTH ST PAUL  SUNNY     25  19  78 SW3       29.75R
LAKE ELMO      FAIR      27  21  80 SW8       29.74S WCI  18
$$
MNZ001>005-007-008-013>017-022>024-027-028-261500-
   Northwest Minnesota

CITY           SKY/WX    TMP DP  RH WIND       PRES   REMARKS
BEMIDJI        LGT SNOW   9   6  84 N6        29.71R WCI   0
HALLOCK        CLEAR      1   0  92 CALM      29.79R
ROSEAU         CLEAR      5   1  85 W6        29.75R WCI  -6
WARROAD        CLEAR      1  -2  85 W3        29.74S
THIEF RVR FALL   N/A    N/A N/A N/A MISG        N/A
CROOKSTON      CLEAR      7   3  85 NW3       29.81R
FOSSTON        CLEAR      3   1  92 NW5       29.76R WCI  -6
DETROIT LAKES  CLEAR     14  10  85 NW10      29.74R WCI   1
MOORHEAD       CLEAR      9   7  92 N9        29.81R WCI  -5
PARK RAPIDS    CLOUDY    16   7  67 N9        29.69R WCI   4
MAHNOMEN       FAIR       9   5  86 N8        29.75R WCI  -4
$$
MNZ006-009>011-018-025>026-261500-
   North Central Minnesota

CITY           SKY/WX    TMP DP  RH WIND       PRES   REMARKS
BAUDETTE       CLEAR      4  -3  73 NW8       29.72R WCI  -9
FLAG ISLAND    CLEAR      1  -2  85 NW6       29.72S WCI -10
INTL FALLS     PTCLDY     7   1  76 W7        29.69R WCI  -5
WASKISH        CLEAR      7   1  78 CALM      29.73R
BIG FORK       LGT SNOW  10   7  85 NW7       29.69R VSB 1   WCI   0
LONGVILLE      LGT SNOW  16  10  79 NW7       29.69R WCI   6
GRAND RAPIDS   LGT SNOW  15  11  83 N16       29.68R FOG     WCI  -1
CRANE LAKE     LGT SNOW  10   7  85 NW5       29.69R WCI   2
ORR            LGT SNOW  10   7  85 CALM      29.64R
COOK           LGT SNOW  12   9  85 NW5       29.66R WCI   4
WALKER         CLOUDY    12   6  77 N6        29.70R WCI   2
$$
MNZ012-019>021-037-261500-
   Northeast Minnesota

CITY           SKY/WX    TMP DP  RH WIND       PRES   REMARKS
DULUTH         LGT SNOW  24  22  91 SW8       29.61S FOG     WCI  15
ELY            LGT SNOW  14  10  85 NW3       29.63R
HIBBING        LGT SNOW  15  11  83 N12       29.64R VSB 1   WCI   2
EVELETH        LGT SNOW  17  12  79 N7        29.64R WCI   8
DULUTH HARBOR  CLOUDY    27  23  86 CALM      29.67S
TWO HARBORS    LGT SNOW  27  21  80 CALM      29.61S
SILVER BAY     LGT SNOW  21  19  93 CALM      29.61S
GRAND MARAIS     N/A     24  11  57 CALM      29.64S
G MARAIS ARPRT CLOUDY    14   9  79 CALM      29.57S
$$
MNZ029>031-032-039>041-046>048-054>057-064-261500-
   West Central Minnesota

CITY           SKY/WX    TMP DP  RH WIND       PRES   REMARKS
FERGUS FALLS   PTCLDY    12  12 100 N9        29.80R WCI   0
WHEATON        CLEAR     16  12  86 NW12      29.81R WCI   3
MORRIS         CLOUDY    23  21  93 NW15      29.74R WCI  10
ALEXANDRIA     CLOUDY    26  23  88 W17       29.70R WCI  13
ELBOW LAKE     FAIR      15  13  95 NW7       29.74R WCI   5
WADENA         CLOUDY    18  18 100 NW5       29.69R WCI  11
GLENWOOD       MOCLDY    27  25  93 W13       29.70R WCI  16
APPLETON       CLOUDY    28  23  80 NW15      29.75R WCI  17
BENSON         PTCLDY    28  23  80 NW10      29.75R WCI  19
ORTONVILLE     CLOUDY    27  19  74 NW15      29.76R WCI  15
MADISON        CLOUDY    30  27  86 NW12      29.76R WCI  21
WILLMAR        CLOUDY    28  25  86 W13       29.75R WCI  18
$$
MNZ033>034-036-042>043-049>051-058-059-261500-
   Central Minnesota

CITY           SKY/WX    TMP DP  RH WIND       PRES   REMARKS
ST CLOUD       CLOUDY    25  22  88 SW8       29.70R WCI  16
SAUK CENTRE    CLOUDY    27  24  87 W16       29.70R WCI  15
PAYNESVILLE    CLOUDY    27  27 100 W8        29.72R WCI  18
AITKIN         LGT SNOW  27  21  80 W3        29.64R
PINE RIVER     LGT SNOW  19  16  86 N9        29.72R WCI   9
BRAINERD       CLOUDY    23  21  92 W9        29.67R FOG     WCI  13
STAPLES        CLOUDY    19  19 100 W8        29.67R WCI   9
LONG PRAIRIE   CLOUDY    28  23  80 SW9       29.68R WCI  20
LITTLE FALLS   FLURRIES  28  23  80 W7        29.69R WCI  21
LITCHFIELD     MOCLDY    27  25  93 SW6       29.73R WCI  20
BUFFALO        CLOUDY    24  21  88 S3        29.73R
MAPLE LAKE     CLOUDY    25  23  93 CALM      29.73R
HUTCHINSON     CLOUDY    25  23  89 SW7       29.74R WCI  18
$$
MNZ037-044-045-052-053-261500-
   East Central Minnesota

CITY           SKY/WX    TMP DP  RH WIND       PRES   REMARKS
PRINCETON      CLOUDY    27  21  80 S5        29.71R WCI  21
MORA           CLOUDY    27  23  86 SW8       29.70R WCI  18
CAMBRIDGE      CLOUDY    27  19  74 S5        29.70R WCI  21
RUSH CITY      CLOUDY    25  21  86 SW8       29.71R WCI  16
MOOSE LAKE     LGT SNOW  27  23  86 SW6       29.64S WCI  20
HINCKLEY       CLOUDY    27  23  86 S7        29.68S WCI  19
CLOQUET        LGT SNOW  25  21  86 S5        29.62S WCI  19
MCGREGOR       CLOUDY    27  25  93 W5        29.64S WCI  21
$$
MNZ071>073-080-081-089-090-097-098-261500-
   Southwest Minnesota

CITY           SKY/WX    TMP DP  RH WIND       PRES   REMARKS
MONTEVIDEO     CLOUDY    27  25  93 NW8       29.77R WCI  18
GRANITE FALLS  MOCLDY    27  23  87 W8        29.77R WCI  18
CANBY          PTCLDY    28  24  85 NW7G17    29.78R WCI  21
MARSHALL       PTCLDY    26  22  84 W15       29.76R WCI  14
REDWOOD FALLS  PTCLDY    25  20  81 W7        29.75R WCI  17
OLIVIA         PTCLDY    27  23  86 W6        29.74R WCI  20
PIPESTONE      CLEAR     21  16  79 W7        29.76R WCI  13
WINDOM         CLEAR     21  18  86 S9        29.76R WCI  11
WORTHINGTON    CLEAR     20  16  84 SW14      29.77R WCI   7
JACKSON        CLEAR     19  16  86 SW10      29.78R WCI   8
TRACY          PTCLDY    28  23  81 W9        29.76R WCI  20
SLAYTON        CLOUDY    23  20  86 W10       29.76R WCI  13
$$
MNZ065>067-074>077-082>085-091>093-261500-
   South Central Minnesota

CITY           SKY/WX    TMP DP  RH WIND       PRES   REMARKS
MANKATO          N/A     18  14  84 S6        29.77R WCI  10
NEW ULM        CLOUDY    25  19  80 SW7       29.76R WCI  17
ST JAMES       CLOUDY    23  19  86 SW10      29.77R WCI  12
FAIRMONT       CLEAR     21  16  81 W16       29.78R WCI   7
GLENCOE        CLOUDY    25  24  93 SW5       29.73S WCI  20
FARIBAULT      SUNNY     18  16  93 S6        29.76R WCI   9
OWATONNA       SUNNY     16  10  79 S12       29.76R WCI   3
WASECA         MOSUNNY   14  12  92 S8        29.78R WCI   3
ALBERT LEA     SUNNY     19  16  86 SW9       29.77R WCI   9
$$
MNZ078>079-086>088-094>096-261500-
   Southeast Minnesota

CITY           SKY/WX    TMP DP  RH WIND       PRES   REMARKS
ROCHESTER      SUNNY     19  15  84 SW14      29.76R WCI   6
RED WING       SUNNY     23  14  68 CALM      29.76S
STANTON        SUNNY     19  15  81 S5        29.75R WCI  13
WINONA         SUNNY     30  21  69 W6        29.79S WCI  24
AUSTIN         SUNNY     18  12  79 SW8       29.78R WCI   7
PRESTON        SUNNY     24  17  75 SW12      29.78R WCI  12
$$
ABBREVIATIONS USED IN REMARKS
   TC - TEMPERATURES IN CELSIUS
  WCI - WIND CHILL INDEX
   HX - HEAT INDEX
  VSB - VISIBILITY
$$



USA.gov is the U.S. government's official web portal to all federal, state and local government web resources and services.